STARLINK-11422, 61944

Orbit data source: Space-Track

STARLINK-11422, 61944 is a payload satellite owned by SpaceX/Seattle (US) in LEO that was launched on Thu, 14 Nov 2024 UTC via an FALCON 9 launch vehicle from the Air Force Western Test Range (AFWTR). Payload-class satellites include a variety of spacecraft equipped with specific instruments for various scientific and technological missions. These include communications satellites like Starlink; space stations such as the ISS; scientific satellites like the Hubble; Earth observation satellites from companies like Planet Labs, Umbra, and HawkEye 360; GPS; miniature CubeSats for education and research; and military/defense satellites.

Loading next visibility...
Identifier
61944, 2024-209F
Orbit
LEO
Country
Flag of USUS
Related business
Manufacturer
SpaceX/Seattle
Mission
Operational Commercial Communications
Bus & Motor
STARLINK V2MD, Unknown motor
Mass
960 kg wet, ~910 kg dry
Launch date (UTC)
2024-11-14 (2 years ago)
Launch vehicle
FALCON 9
Launch site
Air Force Western Test Range (AFWTR)
Object type
Payload
Rocket body
Debris
Shape & HBR
Box + 2 Pan, 18.1 m
Radar Cross Section
36.964 m², Large (>1 m²)

Expand to show TLE details & history
Last TLE update: 11 hours ago

TLE from 11 hours ago
0 STARLINK-11422
1 61944U 24209F   26171.44461887  .00111005  00000-0  90785-3 0  9990
2 61944  53.1577 224.9421 0001219 101.7054 258.4101 15.69737706 92811
Epoch: 2026-06-20T10:40Z
TLE epoch observation values (Epoch: 2026-06-20T10:40:15.070Z)
Latitude
0.00001°
Longitude
156.22016°
Altitude
360.727 km
Speed
7.694 km/s
True Right ascension
14h 59m 46s
True Declination
0° 00' 00"
Sunlit
Object was in full shadow at epoch
Visualization orbit readout
Latitude
Unknown
Longitude
Unknown
Altitude
Unknown
Speed
Unknown
Apparent Right ascension
Unknown
Apparent Declination
Unknown
Sunlit
N/A
Visualization observer readout
Local Sidereal Time
08:33:29
Azimuth
Unknown
Elevation
Unknown
Doppler factor
Unknown
Orbital elements
Apogee altitude
360.73 km
Perigee altitude
359.087 km
Semi-major axis
6,738.046 km
Eccentricity
0.00012
Inclination
53.1577°
RAAN
224.9421°
Arg. of periapsis
101.7054°
True anomaly
258.39642°
Mean anomaly
258.4101°
Eccentric anomaly
258.40326°
Mean motion
3.92412 °/min
Orbital period
91.74 mins
BSTAR
0.00090785
Loading maneuver chart data...
Computing Atmospheric mass density...
Loading historical data...
Loading historical data...
Loading historical data...
Loading historical data...
Loading historical data...
Loading historical data...
Loading historical data...

Documentation

Showing up to 5 results
|